This demonstration page uses our WeatherBlox Daily Observations layout. Learn more.

Left ArrowRight Arrow

39.08367, -84.50855

Hourly Observations for January 14, 2017

Temp ( °F °C ) Dew Point ( °F °C ) Humidity (%) Winds ( mph kmh ) Pressure ( in mb ) Visibility ( mi km ) Precip ( " mm )
12:37 am 00:37 Cloudy with Light Rain 35 1.7 33 0.6 93 93 N 6 9 30.59 1036 8 13 0.00 0.03
12:53 am 00:53 Cloudy with Light Rain 35 1.7 33 0.6 93 93 NE 7 11 30.56 1035 8 13 0.00 0.03
1:53 am 01:53 Cloudy with Light Rain 35 1.7 33 0.6 93 93 NNE 7 11 30.55 1035 9 14 0.00 0.03
2:53 am 02:53 Cloudy 35 1.7 32 0 89 89 NE 6 9 30.56 1035 9 14 0.00 0.03
3:34 am 03:34 Cloudy 34 1 32 0 93 93 NNE 6 9 30.56 1035 9 14 0.00 0.00
3:53 am 03:53 Cloudy 34 1.1 32 0 92 92 NE 5 7 30.54 1034 8 13 0.00 0.00
4:23 am 04:23 Cloudy 34 1.1 32 0 92 92 NE 6 9 30.56 1035 8 13 0.00 0.00
4:30 am 04:30 Cloudy 34 1 32 0 93 93 NNE 5 7 30.56 1035 7 11 0.00 0.00
4:50 am 04:50 Cloudy with Light Rain 34 1 34 1 100 100 NE 6 9 30.53 1034 5 8 0.00 0.03
4:53 am 04:53 Cloudy with Light Rain 34 1.1 33 0.6 97 97 NNE 6 9 30.53 1034 5 8 0.00 0.03
5:05 am 05:05 Cloudy with Mist and Fog 34 1.1 33 0.6 97 97 NNE 3 6 30.56 1035 3 5 0.00 0.03
5:33 am 05:33 Cloudy with Mist and Fog 34 1.1 33 0.6 97 97 NE 5 7 30.53 1034 3 4 0.00 0.03
5:53 am 05:53 Cloudy with Mist and Fog 34 1.1 33 0.6 97 97 NNE 6 9 30.51 1033 3 4 0.00 0.03
6:01 am 06:01 Cloudy with Mist and Fog 34 1.1 33 0.6 97 97 NNE 5 7 30.53 1034 3 5 0.00 0.00
6:53 am 06:53 Cloudy with Mist and Fog 34 1.1 33 0.6 97 97 NE 3 6 30.50 1033 5 8 0.00 0.00
7:53 am 07:53 Cloudy with Mist and Fog 34 1.1 34 1.1 100 100 NNE 3 6 30.50 1033 4 6 0.00 0.00
8:14 am 08:14 Cloudy with Mist and Fog 34 1 34 1 100 100 NNE 3 6 30.50 1033 2 3 0.00 0.00
8:53 am 08:53 Cloudy with Light Rain 34 1.1 34 1.1 100 100 N 3 6 30.49 1033 2 3 0.00 0.03
9:53 am 09:53 Cloudy with Light Rain 35 1.7 35 1.7 100 100 NE 3 6 30.48 1032 3 5 0.03 0.76
10:53 am 10:53 Cloudy with Mist and Fog 36 2.2 35 1.7 97 97 Calm 30.49 1032 4 6 0.00 0.03
11:53 am 11:53 Cloudy with Rain 36 2.2 36 2.2 100 100 Calm 30.45 1031 2 3 0.05 1.27
12:10 pm 12:10 Cloudy with Rain 36 2.2 36 2.2 100 100 Calm 30.48 1032 2 2 0.05 1.27
12:24 pm 12:24 Cloudy with Light Rain 37 3 36 2 93 93 Calm 30.45 1031 3 4 0.00 0.00
12:53 pm 12:53 Cloudy with Light Rain 37 2.8 36 2.2 96 96 Calm 30.42 1030 3 5 0.09 2.29
1:53 pm 13:53 Cloudy with Light Rain 37 2.8 37 2.8 100 100 NNW 5 7 30.41 1030 4 6 0.06 1.52
2:53 pm 14:53 Cloudy with Light Rain 37 2.8 36 2.2 96 96 NNW 3 6 30.41 1030 3 5 0.03 0.76
3:53 pm 15:53 Cloudy with Light Rain 37 2.8 37 2.8 100 100 VRB 3 6 30.38 1029 3 5 0.01 0.25
4:53 pm 16:53 Cloudy 38 3.3 37 2.8 97 97 N 3 6 30.41 1030 8 13 0.00 0.03
5:53 pm 17:53 Cloudy 37 2.8 36 2.2 96 96 NNW 9 15 30.43 1030 10 16 0.00 0.00
6:53 pm 18:53 Cloudy 37 2.8 35 1.7 93 93 NNW 5 7 30.43 1031 10 16 0.00 0.00
7:53 pm 19:53 Cloudy 37 2.8 35 1.7 93 93 WNW 5 7 30.44 1031 8 13 0.00 0.00
8:53 pm 20:53 Cloudy 37 2.8 35 1.7 93 93 N 3 6 30.44 1031 9 14 0.00 0.00
9:53 pm 21:53 Cloudy 37 2.8 35 1.7 93 93 NNW 5 7 30.45 1031 10 16 0.00 0.00
10:53 pm 22:53 Cloudy 37 2.8 35 1.7 93 93 NNW 5 7 30.45 1031 8 13 0.00 0.00
11:29 pm 23:29 Cloudy 36 2.2 34 1.1 93 93 N 6 9 30.48 1032 7 11 0.00 0.00
11:53 pm 23:53 Cloudy 36 2.2 34 1.1 93 93 N 8 13 30.45 1031 7 11 0.00 0.00

Powered by AerisWeather